Weather in Karakulskoye

Russia / Chelyabinsk Oblast     54˚03′35″N   62˚25′35″E
temp.,
°C
wind,
m/s
gust,
m/s
humid.,
%
clouds,
%
prec.,
mm/h
press.,
hPa
HPBL,
m
16 january, sat
sat1623:00−10˚sse61285100 0.0 1019354
02:00−8˚sse51286100 0.0 1016399
05:00−7˚sse51185100 0.0 1014417
08:00−9˚sse41087100 0.0 1011330
11:00−8˚s51187100 0.0 1010417
14:00−8˚ssw5989100 0.0 1008424
17:00−9˚ssw51093100 0.1 1006296
20:00−7˚sw51391100 0.0 1006298
17 january, sun
sun1723:00−6˚wsw7158250 0.0 1008428
02:00−10˚wsw612840 0.0 1010261
05:00−12˚sw613880 0.0 1010268
08:00−11˚sw817880 0.0 1008448
11:00−9˚sw9178721 0.0 1007852
14:00−9˚sw8168050 0.0 1007918
17:00−10˚wsw7158075 0.0 1009840
20:00−13˚wsw6138281 0.0 1012378
18 january, mon
mon1823:00−17˚w478741 0.0 1014102
02:00−20˚w34890 0.0 101626
05:00−22˚w22890 0.0 101720
08:00−23˚wsw11890 0.0 101820
11:00−22˚ssw11870 0.0 101920
14:00−20˚sse11889 0.0 101920
17:00−23˚sse11894 0.0 101920
20:00−24˚s11890 0.0 101920
19 january, tue
tue1923:00−24˚ese008823 0.0 101920
02:00−23˚e1187100 0.0 101920
05:00−23˚e2389100 0.0 101920
08:00−20˚ne239095 0.0 1018121
11:00−18˚ene368997 0.0 1018244
14:00−18˚ne4793100 0.0 1016277
17:00−17˚ne5993100 0.0 1015343
20:00−18˚ne61093100 0.0 1014408
20 january, wed
wed2023:00−18˚ne61196100 1.3 1013458
02:00−18˚ne5897100 1.9 1013503
05:00−18˚nne4697100 3.6 1014377
08:00−19˚n4697100 1.0 1016368
11:00−20˚nnw4597100 1.5 1019360
14:00−21˚nnw359599 0.1 1022233
17:00−24˚nnw229694 0.1 102420
20:00−26˚n229735 0.0 102719